Find Starlink 11420

NORAD ID: 62591 Int'l Des: 2025-008 Owner: SPXS Country: US Constellation: starlink operational
別名: STARLINK-11420 [DTC] celestrak
LEOCIRCULAR

現在のビュー

3D地球を読み込み中...

About Starlink 11420

Starlink 11420 (NORAD 62591) is a starlink constellation satellite (v2 mini d2c) launched Jan 13, 2025 by SPXS of US. It operates in LEO, CIRCULAR orbit with a mass of 960.00 kg.

次回通過

Passes for default location (London). Set your location on the main map for personalized predictions.

高度履歴

Loading altitude history...

軌道要素

1 62591U 25008E 26264.27728136 .00193253 00000-0 14704-2 0 9995
2 62591 43.0004 27.3576 0001852 269.5060 90.5596 15.70911606 98052
Epoch: Sep 21, 2026 • Age: 10 hours

現在のステータス

高度 360.0 km
遠地点 / 近地点 N/A
速度 7.70 km/s
衛星直下点 42.33°N, 115.36°W
打ち上げ日 Jan 13, 2025
運用期間 1.6 years
タイプ internet

技術仕様

分類 Payload
質量 960.00 kg
乾燥質量 910.00 kg
長さ 0.30 m
スパン 29.00 m
形状 ? Box + pan
製造者 SPXS
バスタイプ Starlink V2MD
フェーズステータス In Orbit
所有者/国 SPXS/US

Most Searched